Location: Arcizac
(43.0933°N, 0.0112°E)
Time: 16:13:45
(UTC+00:00)

IRIDIUM 103 - Pass Details

Date: 14 December 2019
Orbit: 776 x 779 km, 86.4° (Epoch: 18 January)

Event Time Altitude Azimuth Distance (km) Brightness Sun altitude
Rises 18:29:00 0° 176° (S) 3,248 7.6 -21.7°
Reaches altitude 10° 18:31:20 10° 174° (S) 2,325 6.8 -22.1°
Maximum altitude 18:36:31 73° 90° (E) 816 4.2 -23.0°
Enters shadow 18:39:18 28° 11° (N) 1,431 5.5 -23.5°
